Simultaneous Nadir Overpasses (SNOs) Predictions

Prediction of SNOs between NOAA-19 and NPP Satellite Orbit:

Table of predicted SNOs for the next 14.0 days since TLE Epoch: 12/26/2020
Index Date (NOAA-19) Time (NOAA-19) Lat,Lon (NOAA-19) SZA (NOAA-19 ) Date (NPP) Time (NPP) Lat,Lon (NPP) SZA (NPP ) Distance(km) Time Diff (sec)
1 01/02/2021 03:17:12 -78.75, -78.63 76.97 01/02/2021 03:18:22 -78.76, -78.60 76.99 1.79 70
2 01/02/2021 04:08:14 78.78, 88.84 103.04 01/02/2021 04:09:07 78.75, 88.77 103.00 3.23 53
3 01/02/2021 04:59:12 -78.76,-104.02 76.97 01/02/2021 04:59:52 -78.77,-103.99 76.99 0.65 40
4 01/02/2021 05:50:15 78.76, 63.21 103.03 01/02/2021 05:50:37 78.76, 63.37 103.00 3.66 22
5 01/02/2021 06:41:12 -78.78,-129.41 76.97 01/02/2021 06:41:22 -78.77,-129.39 76.99 1.10 10
6 01/02/2021 07:32:15 78.78, 37.82 103.03 01/02/2021 07:32:08 78.80, 37.74 103.06 2.93 7
7 01/02/2021 08:23:12 -78.79,-154.80 76.98 01/02/2021 08:22:52 -78.77,-154.78 76.99 2.34 20
8 01/02/2021 09:14:15 78.79, 12.44 103.03 01/02/2021 09:13:38 78.80, 12.34 103.06 2.24 37
9 01/02/2021 10:05:12 -78.81, 179.82 76.98 01/02/2021 10:04:22 -78.78, 179.82 76.99 3.64 50
10 01/02/2021 10:56:15 78.81, -12.95 103.02 01/02/2021 10:55:08 78.80, -13.05 103.05 2.31 67



Historial Predications of SNOs between NOAA-19 and NPP
